When you browse on this site, cookies collect data to enhance your experience and personalize the content and advertising you see.
Visit our Privacy Policy to learn more. By continuing to use the site, you agree to this use of cookies and data.
  • In Romania
  • List of Countries
  • For 7 days
  • Water Temperature
  • Satellite Maps
  • Weather Map
  • Weather Widgets
  • user-avatar
    Login

    Hourly Weather Malakoff

    Today, 27 June, Thursday

    Time Temperature Precipitation Wind Pressure Humidity
    00:00 +25°C° 0 mm 5 mps 760 mmHg 78%
    01:00 +25°C° 0 mm 5 mps 760 mmHg 81%
    02:00 +23°C° 0 mm 4 mps 760 mmHg 83%
    03:00 +22°C° 0 mm 4 mps 760 mmHg 85%
    04:00 +23°C° 0 mm 4 mps 760 mmHg 83%
    05:00 +23°C° 0 mm 5 mps 760 mmHg 82%
    06:00 +23°C° 0 mm 5 mps 760 mmHg 80%
    07:00 +25°C° 0 mm 5 mps 761 mmHg 75%
    08:00 +27°C° 0 mm 5 mps 761 mmHg 71%
    09:00 +28°C° 0 mm 5 mps 761 mmHg 66%
    10:00 +29°C° 0 mm 5 mps 761 mmHg 63%
    11:00 +32°C° 0 mm 5 mps 761 mmHg 60%
    12:00 +33°C° 0 mm 5 mps 761 mmHg 56%
    13:00 +33°C° 0 mm 5 mps 761 mmHg 56%
    14:00 +34°C° 0 mm 5 mps 761 mmHg 55%
    15:00 +34°C° 0 mm 6 mps 760 mmHg 54%
    16:00 +33°C° 0 mm 6 mps 760 mmHg 56%
    17:00 +30°C° 0 mm 6 mps 760 mmHg 57%
    18:00 +29°C° 0 mm 6 mps 760 mmHg 59%
    19:00 +28°C° 0 mm 5 mps 760 mmHg 59%
    20:00 +26°C° 0 mm 5 mps 760 mmHg 58%
    21:00 +25°C° 0 mm 5 mps 761 mmHg 58%
    22:00 +23°C° 0 mm 5 mps 761 mmHg 58%
    23:00 +22°C° 0 mm 5 mps 761 mmHg 58%

    Tomorrow, 28 June, Friday

    Time Temperature Precipitation Wind Pressure Humidity
    00:00 +21°C° 0 mm 4 mps 760 mmHg 58%
    01:00 +21°C° 0 mm 4 mps 760 mmHg 60%
    02:00 +20°C° 0 mm 4 mps 760 mmHg 62%
    03:00 +19°C° 0 mm 4 mps 760 mmHg 64%
    04:00 +20°C° 0 mm 4 mps 760 mmHg 64%
    05:00 +20°C° 0 mm 4 mps 760 mmHg 64%
    06:00 +20°C° 0 mm 4 mps 760 mmHg 64%
    07:00 +21°C° 0 mm 4 mps 760 mmHg 60%
    08:00 +23°C° 0 mm 4 mps 760 mmHg 57%
    09:00 +26°C° 0 mm 4 mps 760 mmHg 53%
    10:00 +27°C° 0 mm 4 mps 759 mmHg 50%
    11:00 +29°C° 0 mm 4 mps 759 mmHg 46%
    12:00 +32°C° 0 mm 4 mps 759 mmHg 42%
    13:00 +32°C° 0 mm 4 mps 759 mmHg 43%
    14:00 +32°C° 0 mm 4 mps 759 mmHg 43%
    15:00 +33°C° 0 mm 5 mps 758 mmHg 43%
    16:00 +32°C° 0 mm 4 mps 758 mmHg 46%
    17:00 +30°C° 0 mm 4 mps 758 mmHg 50%
    18:00 +29°C° 0 mm 4 mps 758 mmHg 53%
    19:00 +28°C° 0 mm 4 mps 758 mmHg 56%
    20:00 +26°C° 0 mm 3 mps 758 mmHg 58%
    21:00 +25°C° 0 mm 3 mps 758 mmHg 61%
    22:00 +24°C° 0 mm 3 mps 758 mmHg 61%
    23:00 +24°C° 0 mm 3 mps 758 mmHg 61%

    Day after tomorrow, 29 June, Saturday

    Time Temperature Precipitation Wind Pressure Humidity
    00:00 +22°C° 0 mm 3 mps 757 mmHg 62%
    01:00 +21°C° 0 mm 2 mps 757 mmHg 62%
    02:00 +21°C° 0 mm 2 mps 757 mmHg 61%
    03:00 +20°C° 0 mm 2 mps 757 mmHg 61%
    04:00 +20°C° 0 mm 2 mps 756 mmHg 60%
    05:00 +21°C° 0 mm 3 mps 756 mmHg 59%
    06:00 +21°C° 0 mm 3 mps 756 mmHg 58%
    07:00 +24°C° 0 mm 3 mps 756 mmHg 54%
    08:00 +25°C° 0 mm 3 mps 756 mmHg 51%
    09:00 +27°C° 0 mm 3 mps 756 mmHg 47%
    10:00 +29°C° 0 mm 3 mps 756 mmHg 44%
    11:00 +31°C° 0 mm 3 mps 756 mmHg 41%
    12:00 +33°C° 0 mm 3 mps 755 mmHg 38%
    13:00 +34°C° 0 mm 3 mps 755 mmHg 38%
    14:00 +34°C° 0 mm 3 mps 755 mmHg 37%
    15:00 +35°C° 0 mm 3 mps 754 mmHg 37%
    16:00 +34°C° 0 mm 3 mps 754 mmHg 41%
    17:00 +34°C° 0 mm 2 mps 754 mmHg 45%
    18:00 +32°C° 0 mm 2 mps 754 mmHg 49%
    19:00 +30°C° 0 mm 2 mps 754 mmHg 54%
    20:00 +29°C° 0 mm 2 mps 754 mmHg 59%
    21:00 +27°C° 0 mm 2 mps 754 mmHg 64%
    22:00 +27°C° 0 mm 2 mps 754 mmHg 67%
    23:00 +26°C° 0 mm 2 mps 754 mmHg 70%

    30 June, Sunday

    Time Temperature Precipitation Wind Pressure Humidity
    00:00 +25°C° 0 mm 2 mps 754 mmHg 73%
    01:00 +24°C° 0 mm 2 mps 754 mmHg 77%
    02:00 +24°C° 0 mm 2 mps 755 mmHg 81%
    03:00 +22°C° 0 mm 3 mps 755 mmHg 85%
    04:00 +22°C° 0 mm 3 mps 755 mmHg 85%
    05:00 +22°C° 0 mm 3 mps 756 mmHg 84%
    06:00 +22°C° 0 mm 3 mps 756 mmHg 84%
    07:00 +24°C° 0 mm 3 mps 757 mmHg 74%
    08:00 +25°C° 0 mm 3 mps 757 mmHg 63%
    09:00 +26°C° 0 mm 3 mps 757 mmHg 52%
    10:00 +27°C° 0 mm 3 mps 758 mmHg 48%
    11:00 +28°C° 0 mm 3 mps 758 mmHg 43%
    12:00 +29°C° 0 mm 3 mps 758 mmHg 38%
    13:00 +30°C° 0 mm 3 mps 758 mmHg 38%
    14:00 +30°C° 0 mm 3 mps 758 mmHg 37%
    15:00 +30°C° 0 mm 3 mps 758 mmHg 36%
    16:00 +29°C° 0 mm 3 mps 758 mmHg 41%
    17:00 +28°C° 0 mm 3 mps 758 mmHg 45%
    18:00 +27°C° 0 mm 3 mps 758 mmHg 50%
    19:00 +26°C° 0 mm 3 mps 758 mmHg 56%
    20:00 +24°C° 0 mm 3 mps 758 mmHg 61%
    21:00 +22°C° 0 mm 3 mps 759 mmHg 67%
    22:00 +21°C° 0 mm 2 mps 759 mmHg 68%
    23:00 +20°C° 0 mm 2 mps 759 mmHg 70%

    1 July, Monday

    Time Temperature Precipitation Wind Pressure Humidity
    00:00 +19°C° 0 mm 2 mps 759 mmHg 71%
    01:00 +19°C° 0 mm 2 mps 759 mmHg 70%
    02:00 +18°C° 0 mm 2 mps 759 mmHg 68%
    03:00 +18°C° 0 mm 2 mps 759 mmHg 66%
    04:00 +18°C° 0 mm 2 mps 759 mmHg 64%
    05:00 +18°C° 0 mm 2 mps 759 mmHg 63%
    06:00 +19°C° 0 mm 1 mps 759 mmHg 61%
    07:00 +20°C° 0 mm 2 mps 759 mmHg 56%
    08:00 +21°C° 0 mm 2 mps 759 mmHg 52%
    09:00 +24°C° 0 mm 2 mps 759 mmHg 48%
    10:00 +25°C° 0 mm 2 mps 759 mmHg 45%
    11:00 +26°C° 0 mm 2 mps 760 mmHg 41%
    12:00 +28°C° 0 mm 1 mps 760 mmHg 38%
    13:00 +28°C° 0 mm 2 mps 760 mmHg 40%
    14:00 +28°C° 0 mm 2 mps 760 mmHg 42%
    15:00 +28°C° 0 mm 3 mps 760 mmHg 44%
    16:00 +27°C° 0 mm 3 mps 759 mmHg 49%
    17:00 +26°C° 0 mm 4 mps 759 mmHg 54%
    18:00 +25°C° 0 mm 5 mps 759 mmHg 59%
    19:00 +22°C° 0 mm 4 mps 759 mmHg 62%
    20:00 +21°C° 0 mm 4 mps 760 mmHg 64%
    21:00 +19°C° 0 mm 4 mps 761 mmHg 66%
    22:00 +18°C° 0 mm 3 mps 761 mmHg 70%
    23:00 +18°C° 0 mm 3 mps 761 mmHg 74%

    2 July, Tuesday

    Time Temperature Precipitation Wind Pressure Humidity
    00:00 +17°C° 0 mm 3 mps 761 mmHg 78%
    01:00 +17°C° 0 mm 3 mps 761 mmHg 78%
    02:00 +16°C° 0 mm 3 mps 760 mmHg 77%
    03:00 +16°C° 0 mm 3 mps 760 mmHg 76%
    04:00 +16°C° 0 mm 3 mps 760 mmHg 74%
    05:00 +15°C° 0 mm 4 mps 760 mmHg 71%
    06:00 +17°C° 0 mm 4 mps 761 mmHg 69%
    07:00 +18°C° 0 mm 4 mps 761 mmHg 63%
    08:00 +19°C° 0 mm 4 mps 761 mmHg 58%
    09:00 +21°C° 0 mm 4 mps 761 mmHg 52%
    10:00 +22°C° 0 mm 4 mps 761 mmHg 48%
    11:00 +23°C° 0 mm 4 mps 760 mmHg 45%
    12:00 +25°C° 0 mm 4 mps 760 mmHg 42%
    13:00 +25°C° 0 mm 4 mps 760 mmHg 42%
    14:00 +25°C° 0 mm 4 mps 760 mmHg 43%
    15:00 +25°C° 0 mm 4 mps 759 mmHg 43%
    16:00 +25°C° 0 mm 4 mps 759 mmHg 47%
    17:00 +23°C° 0 mm 4 mps 759 mmHg 50%
    18:00 +22°C° 0 mm 5 mps 758 mmHg 53%
    19:00 +21°C° 0 mm 4 mps 759 mmHg 55%
    20:00 +21°C° 0 mm 4 mps 759 mmHg 57%
    21:00 +20°C° 0 mm 4 mps 759 mmHg 59%
    22:00 +19°C° 0 mm 4 mps 759 mmHg 63%
    23:00 +18°C° 0 mm 4 mps 758 mmHg 67%
    Show more